Flag for Moldova Weather past 2 weeks in Cahul, Moldova

Now
51 °F

Overcast.


Feels Like: 50 °F
Forecast: 45 / 56 °F
Wind: 3 mph from South

Location: Galati

Current Time: Mar 31, 2015 at 2:06:30 AM

Latest Report: Mar 31, 2015 at 1:00 AM


Visibility: 6 mi

Pressure: 29.63 "Hg

Humidity: 80%

Dew point: 44 °F

Location of CahulLocation

Historic Weather in Cahul — Graph

°F

Cahul temperature yesterday

Maximum temperature yesterday: 58 °F (at 3:00 PM)
Minimum temperature yesterday: 46 °F (at 8:00 AM)
Average temperature yesterday: 52 °F

Past Weeks' High & Low Weather Summary

 TemperatureHumidityPressure
High64 °F (Mar 26, 4:00 PM)100% (Mar 19, 12:00 AM)30.66 "Hg (Mar 19, 12:00 AM)
Low31 °F (Mar 24, 6:00 AM)24% (Mar 22, 4:00 PM)29.61 "Hg (Mar 30, 6:00 PM)
Average44 °F75%30.11 "Hg
* Reported Midnight between Mar 15 and Mar 16 — Mar 31 1:00 AM, Cahul, Weather by CustomWeather, © 2015

Note: Actual official high and low records may vary slightly from our data, if they occured in-between our weather recording intervals... More about our weather records

Advertising

Cahul weather history for previous 24 hours

 ConditionsComfort  
Time TempWeatherWind HumidityBarometerVisibility
1:00 AM
Tue, Mar 31
51 °FOvercast.3 mph80%29.63 "Hg6 mi
11:00 PM
Mon, Mar 30
52 °FOvercast.3 mph73%29.63 "Hg6 mi
10:00 PM53 °FOvercast.3 mph69%29.62 "Hg6 mi
9:00 PM53 °FOvercast.3 mph69%29.62 "Hg6 mi
8:00 PM55 °FOvercast.3 mph64%29.61 "Hg6 mi
7:00 PM56 °FOvercast.3 mph61%29.61 "Hg6 mi
6:00 PM58 °FOvercast.5 mph56%29.61 "Hg6 mi
5:00 PM57 °FPartly sunny.5 mph59%29.62 "Hg12 mi
4:00 PM58 °FPartly sunny.6 mph59%29.62 "Hg6 mi
3:00 PM58 °FOvercast.6 mph58%29.65 "Hg6 mi
2:00 PM58 °FPartly sunny.6 mph58%29.67 "Hg6 mi
1:00 PM56 °FOvercast.5 mph65%29.68 "Hg6 mi
12:00 PM52 °FFog.3 mph82%29.70 "Hg2 mi
11:00 AM49 °FFog.5 mph93%29.72 "Hg1 mi
10:00 AM47 °FFog.3 mph97%29.72 "Hg1 mi
9:00 AM46 °FFog.2 mph100%29.73 "Hg1 mi
8:00 AM46 °FFog.2 mph100%29.74 "Hg1 mi
7:00 AM46 °FFog.2 mph100%29.74 "Hg1 mi
5:00 AM47 °FFog.2 mph100%29.74 "Hg1 mi
4:00 AM47 °FFog.2 mph100%29.76 "Hg1 mi
3:00 AM48 °FFog.2 mph100%29.77 "Hg1 mi
2:00 AM48 °FFog.2 mph100%29.78 "Hg1 mi
Weather by CustomWeather, © 2015

See weather overviewHow to use our weather pages